CAPE
2454 2452 2411 2154 2154 1791 2286 2870 2548 2319 2374 1716 2524 2791 2880 3014 2785 3047 2752 3598 3928 3725 3839 4090 3656 3630 3586 3773 3521 3318 4571 3386 3147 4128 4097 4079 3698 3342 2383 2280 2353 2069
2491 2692 2536 2355 2304 2266 2625 3019 2970 2839 2773 2263 1762 2844 3202 3422 2895 3244 3010 3693 3973 3668 3969 3693 4144 4100 4003 3816 4078 3801 3423 3836 3614 2885 3662 3889 4086 3643 2605 2648 2368 2245
2678 3033 2796 2344 2119 2323 1382 2370 2962 3091 2810 2021 1771 2820 3011 3162 2992 3209 3401 3580 3516 3262 4120 4030 4074 4234 3961 4257 4432 4194 3706 4059 3388 2777 3917 3983 3966 4207 3879 2526 2471 2646
3031 2916 2274 1934 1904 1964 1580 1878 2722 3034 2487 2348 1501 1315 2479 1957 2964 3192 3656 3729 3835 3731 3472 3462 3667 3561 3824 3916 4250 4077 4039 4141 3657 3782 4079 4296 4186 3872 3366 3794 3060 3240
3088 2962 2652 2331 2158 2101 1896 1892 1778 2547 2340 2274 1586 1326 2434 3261 3031 3150 3476 3560 3934 3724 3729 3818 3889 3663 4067 3996 4072 4140 3676 3842 3923 4135 3979 4312 4518 4102 3518 3500 3852 3547
3214 2912 3039 2737 2546 2622 2205 1961 2053 2183 2254 1888 1836 1261 1748 3624 2768 2920 3114 3056 3045 2993 2808 3026 3405 3235 3612 3991 4083 3957 3662 3091 3462 4019 3800 4099 3506 3760 3223 3876 3873 3709
3009 3195 3151 2978 2594 2706 2492 2296 2191 2243 2190 1759 1976 1496 1413 2088 2718 2672 3140 3164 2792 3037 2880 3017 3486 3395 3333 3779 3953 4362 4316 4060 3772 3994 4008 3832 4083 4057 3267 3629 4337 3994
3130 2897 3010 2938 2460 2603 2634 2842 2470 2390 2514 2123 2136 2204 1891 1691 2418 2500 3065 3161 3014 3174 3054 3185 3784 3936 3296 3649 4002 4081 3938 3256 3749 4708 4098 4234 4052 3925 4013 3826 4330 4231
3207 3167 3025 3000 2766 2492 2414 2398 2398 2225 2409 2229 1593 1780 2340 1995 2416 2269 2778 3234 3189 3302 3213 3121 3828 3598 3273 3320 3530 3888 3878 3498 3112 3509 4201 4116 4216 4202 3869 3856 3938 4174
3364 3187 2936 2674 2561 2333 2153 2149 2029 1854 2125 2253 1741 1678 2216 2481 2618 2510 3053 3317 3233 3318 3302 3020 3615 3286 3088 3336 3620 3779 3857 4022 3872 3485 3501 3899 4107 4084 3955 4070 3772 3864
2975 2963 2637 2781 2672 2305 2171 2058 2076 1825 1639 1732 1653 1593 1877 2220 2802 2938 3202 3418 2988 3144 3230 2990 3030 3138 3164 2930 3261 3398 3785 3824 3752 3862 3737 3781 3769 3984 4259 4181 4030 3739
2978 2914 2947 2584 2474 2341 2388 2184 2026 1837 1593 1628 1776 1709 2022 1847 2698 2893 3107 3384 2912 2890 3239 3053 2929 2968 3247 3178 3039 3160 3514 3560 3802 3809 3392 3630 3814 3830 3933 3913 3873 3930
3300 3013 2853 2518 2696 2536 2240 2137 1716 1856 1908 1787 1953 1816 1711 1898 2081 2658 2960 3349 3216 3026 3012 3217 3146 2994 3246 3497 3376 3217 3252 3403 3207 3679 3532 3392 3476 3452 3493 3661 3629 3653
3263 3163 3030 3026 2776 2840 2890 2455 1940 2140 2471 2463 2483 2230 1631 1668 2058 2290 2824 3132 3303 3043 3066 3213 3535 3297 3504 3688 3628 3435 3328 3363 3375 3440 3381 3339 3108 3262 3246 3115 3453 3477
3553 3295 3229 3312 2984 3110 2986 2718 2329 2261 2570 2754 2698 2435 1804 1336 2076 2184 2549 2863 3264 3282 3231 3144 3528 3574 3563 3829 3753 3601 3204 3211 3377 3316 3304 3175 3097 2901 2932 2998 2947 2890
3947 3684 3432 3507 3337 3296 3146 2958 2714 2441 2244 2726 2840 2577 2322 1934 1755 2523 2590 2864 3333 3847 3761 3461 3491 3705 3629 3494 3471 3620 3474 2769 3226 3432 3163 2930 3145 3044 2868 2903 2633 2464
4149 3952 3727 3710 3512 3428 3156 2977 2858 2485 2249 2601 2946 2756 2584 2606 2283 2482 2636 2708 2920 3462 3814 3575 3499 3669 3637 3544 3434 3523 3494 3246 3112 3600 3588 3438 3237 3263 3025 2621 2668 2701
4258 4283 4106 3945 3635 3475 3264 3102 2853 2693 2524 2666 2906 2904 3052 2959 2572 2509 2620 2697 2672 3043 3482 3774 3616 3363 3634 3588 3683 3732 3532 3639 3283 3371 3586 3637 3326 2837 2981 2922 2791 2475
4440 4446 4244 3999 3778 3650 3522 3256 3116 2971 2785 2714 2793 2969 3218 3258 2784 2592 2693 2766 2826 3002 3345 3782 3712 3122 3437 3620 3618 3688 3677 3618 3456 3075 3032 3484 3443 3219 2770 2798 2805 2634
4659 4577 4394 4113 3988 3991 3768 3348 3195 3272 2866 2664 2524 2930 3291 3381 3157 2760 2698 2921 2984 3251 3257 3535 3829 3301 3097 3486 3563 3552 3669 3669 4040 3529 3142 3014 3522 3601 3223 3110 3076 2910
4916 4806 4625 4333 4137 4062 3982 3610 3333 3377 3114 2584 2240 2595 3301 3535 3285 2931 2820 2843 2906 3292 3529 3388 3593 3518 3072 3134 3497 3540 3614 3601 3810 3372 3009 3035 3315 3632 3862 3549 3363 3078
4995 5019 4932 4514 4256 4056 4056 3941 3563 3465 3399 2930 2447 2279 2893 3700 3672 3098 3077 2929 2823 2620 2576 3319 3103 3564 3197 3056 3307 3503 3500 3445 3538 3464 2961 2926 3171 3305 3583 3902 3808 3583
4924 5052 5068 4795 4391 4036 4018 4002 3762 3575 3522 3255 2943 2608 2743 3480 3509 3173 3240 3130 2769 2886 2899 3021 4165 3592 3334 3143 3149 3356 3389 3315 3393 3495 3340 2997 2969 3672 3930 3845 3778 3747
4921 5058 5102 4952 4637 4130 4020 3971 3903 3638 3420 3393 3260 2898 2373 2712 3356 3422 3414 3200 2855 2913 3097 3372 3688 3438 3320 3202 3121 3092 3086 3101 3427 3586 3509 3271 3193 3282 3521 3628 3582 3880
5115 5226 5079 4848 4843 4412 3786 4056 3893 3692 3357 3459 3110 2868 2886 3418 3611 3665 3579 3440 3108 3135 3055 3349 3305 4350 3162 3133 3129 3106 3064 3157 3467 3624 3666 3510 3473 3445 3518 3724 3968 4058
4989 5234 5259 4904 5010 4816 4458 4568 4291 3674 3431 3290 3011 2759 2894 3207 3653 3701 3993 3825 3309 3105 3442 3445 3275 5528 3066 2985 2990 3002 3009 3155 3706 3695 3614 3637 3598 3587 3573 3545 3686 4128
Wind_Speed
12 8 7 7 8 8 8 8 7 5 5 5 5 4 3 4 3 5 4 5 3 2 3 3 3 4 4 4 4 2 3 4 2 6 4 4 4 3 4 3 2 1
14 11 9 9 10 9 9 8 8 7 6 6 5 6 5 6 4 6 5 6 5 4 5 5 5 4 3 4 5 4 2 4 2 6 5 5 3 2 2 4 3 4
17 14 11 10 9 9 7 8 8 7 7 5 5 7 7 6 7 6 7 6 7 5 6 6 6 5 4 4 6 4 5 3 4 2 8 6 4 2 1 5 5 4
19 17 14 11 11 11 9 9 9 9 7 7 5 6 8 7 8 9 8 7 9 8 7 6 5 4 4 3 4 3 3 3 3 2 4 6 5 4 3 1 4 7
19 19 18 15 13 14 12 10 8 8 7 8 8 7 9 10 11 11 10 9 9 8 8 6 4 3 2 2 1 1 2 2 3 3 2 3 5 4 3 4 3 4
20 20 20 18 16 16 14 12 11 9 8 8 9 9 9 11 12 11 10 9 8 7 6 4 2 3 1 3 3 3 4 4 4 4 4 4 4 4 4 4 4 3
21 21 21 20 18 17 16 15 13 11 10 9 12 11 11 11 13 11 11 9 8 6 5 5 4 4 4 3 3 3 5 5 4 5 5 6 6 6 7 4 4 2
22 22 21 21 19 18 18 18 15 13 13 11 13 12 12 12 13 12 11 9 7 7 7 6 6 5 3 4 2 2 3 5 6 3 6 6 6 7 8 7 5 4
22 22 22 21 20 19 19 19 17 15 14 13 13 14 14 14 15 12 12 10 7 8 8 8 7 5 5 4 3 1 2 4 4 4 5 7 7 7 8 7 7 5
22 22 22 21 20 19 20 21 20 18 16 14 13 15 16 16 17 14 14 12 9 9 9 9 9 7 5 4 3 1 1 3 3 3 5 6 7 8 9 8 8 7
21 22 21 21 20 18 20 22 22 21 18 16 15 14 16 17 17 16 15 13 11 10 10 9 9 8 6 4 3 2 1 2 3 2 4 6 7 7 8 9 9 8
21 21 21 21 20 18 20 21 22 22 21 18 16 15 17 18 18 17 16 15 13 12 12 11 10 9 7 5 3 2 2 1 2 3 4 4 7 8 8 8 8 8
21 20 21 21 20 19 19 19 20 21 21 20 18 16 16 17 18 18 17 17 16 14 13 13 11 9 8 6 5 4 4 3 3 5 5 5 6 8 9 9 9 8
18 20 20 20 21 20 19 20 19 20 21 20 19 17 15 16 18 18 18 18 18 16 15 14 13 10 9 8 6 5 6 4 3 4 6 6 7 8 8 8 8 8
17 19 20 20 21 20 19 20 20 19 21 21 20 17 15 15 18 19 19 18 18 18 16 15 14 11 10 9 8 6 6 6 5 5 5 6 7 8 8 7 7 8
17 17 19 20 21 21 19 20 21 20 21 21 20 18 17 16 17 21 20 19 19 19 18 17 15 14 11 10 11 9 7 6 6 5 5 6 8 8 8 8 8 7
16 16 18 19 20 20 20 19 20 21 21 21 20 20 18 18 18 20 20 20 19 18 18 17 16 15 13 13 13 10 8 7 7 7 7 6 7 9 8 8 8 8
16 17 17 17 18 20 20 19 20 21 21 21 21 21 20 20 18 18 20 22 20 18 17 17 17 16 18 16 15 12 9 8 6 7 9 9 7 8 9 8 8 8
17 17 16 16 17 19 20 20 19 20 21 21 20 22 23 21 20 18 20 22 22 20 17 16 17 19 21 19 17 15 11 9 7 6 8 10 9 8 9 10 9 8
18 17 17 16 17 18 20 20 19 19 20 21 21 22 23 22 20 20 20 21 22 22 19 17 17 21 22 21 20 18 14 11 9 7 6 8 11 11 9 10 11 11
19 19 18 17 18 17 18 19 19 19 19 20 20 21 22 22 22 21 21 20 22 23 22 18 18 23 24 23 22 21 17 13 9 7 7 8 10 12 12 11 11 12
20 20 19 19 19 18 18 18 19 19 19 19 20 20 21 22 23 21 21 21 21 21 20 19 18 25 24 24 24 24 22 18 11 8 6 7 11 12 13 13 12 12
19 21 21 22 21 19 18 19 20 20 19 20 19 20 21 22 22 21 22 21 21 22 19 19 23 22 24 24 26 26 27 21 14 11 8 8 10 13 13 13 13 13
19 20 22 23 23 21 20 19 20 20 20 20 19 19 19 20 21 21 20 20 20 21 21 21 21 24 23 24 25 28 28 23 17 13 11 11 12 12 13 14 13 12
21 21 21 23 23 23 22 21 21 21 21 21 20 19 19 21 21 20 19 20 20 20 20 22 20 25 21 25 25 28 27 24 20 16 13 15 17 15 14 14 15 13
23 23 22 22 24 25 24 22 22 22 22 21 20 19 20 20 21 20 19 18 19 19 22 23 21 28 23 22 27 27 26 25 23 19 16 19 19 18 17 15 14 15
Wind_Direction
265 252 239 235 233 234 231 241 237 231 218 223 232 231 233 235 205 265 267 272 277 243 242 239 240 244 267 269 274 268 294 319 320 316 340 337 7 34 351 8 330 335
271 264 247 242 238 238 232 242 245 238 234 229 232 245 243 244 257 247 271 276 282 276 262 269 262 265 266 277 277 290 282 295 331 316 327 325 343 9 357 319 333 312
268 268 267 266 258 258 263 246 244 242 244 247 235 245 259 251 264 249 268 271 280 284 271 265 268 264 271 270 287 293 302 296 311 314 308 322 314 305 287 310 306 309
271 272 271 272 266 266 256 249 247 245 243 253 252 245 259 265 260 272 262 273 269 271 274 271 273 278 266 265 277 293 318 315 321 333 310 312 318 316 314 264 303 314
273 269 267 266 262 263 261 258 267 257 252 252 262 245 252 254 265 269 265 268 266 273 269 270 266 264 260 202 185 115 60 21 24 27 45 345 332 333 323 305 269 277
268 267 268 268 266 267 270 269 265 263 261 264 264 259 256 257 267 267 272 277 277 277 275 271 248 164 171 149 139 112 104 76 49 43 63 69 50 14 35 321 307 280
281 275 275 271 273 271 272 272 268 264 262 252 255 259 260 264 266 267 271 271 279 262 254 232 199 170 169 179 142 128 115 109 96 29 51 66 73 78 62 47 356 322
286 281 278 273 280 273 275 274 274 269 265 256 263 265 265 273 270 270 266 272 267 249 220 216 205 194 186 191 182 135 113 93 103 52 37 57 56 61 72 69 41 25
283 284 283 286 289 282 287 286 283 280 271 271 266 272 268 272 278 279 270 270 248 232 219 207 217 218 203 207 201 140 79 85 74 72 33 35 44 45 47 56 62 40
283 283 294 295 296 290 295 292 289 287 279 277 271 271 276 272 282 286 279 274 257 228 222 210 216 226 223 226 222 254 46 66 80 31 34 32 34 33 34 34 43 45
291 290 295 299 300 296 302 298 294 293 286 287 279 278 281 277 277 284 281 278 267 239 231 224 219 227 240 243 233 235 337 22 51 46 13 15 27 33 27 24 26 30
295 295 298 302 302 299 300 298 296 295 296 291 287 279 276 284 282 285 282 280 268 249 239 238 229 229 237 246 266 268 280 342 352 11 21 7 12 21 30 27 24 21
299 297 294 298 293 289 288 288 293 297 300 300 292 283 281 285 289 287 282 281 273 257 248 246 241 239 239 248 253 263 281 312 354 350 1 5 7 15 20 22 25 23
297 291 293 290 288 281 281 286 288 289 290 291 289 290 288 287 288 289 283 282 280 269 255 250 248 243 246 254 256 261 279 304 333 332 348 354 1 3 12 17 11 16
290 284 283 285 289 286 285 286 285 280 280 284 285 289 285 283 281 286 284 286 283 276 267 259 255 249 246 256 263 269 268 296 320 332 334 335 346 358 1 3 12 14
297 287 282 282 287 292 289 287 285 281 283 283 285 286 276 270 270 274 284 286 283 281 273 264 253 245 254 288 282 269 273 281 294 313 327 325 329 337 349 351 4 13
299 296 287 286 286 288 290 289 290 286 282 280 280 280 275 268 263 271 280 280 285 284 281 267 254 247 273 277 288 300 281 274 285 302 316 321 321 320 331 342 342 348
298 298 295 291 286 288 290 289 287 286 284 282 282 284 272 268 268 265 269 275 277 282 284 272 259 258 273 278 285 295 292 278 286 292 307 317 320 320 318 321 327 331
295 299 299 296 291 287 284 284 286 288 290 288 287 281 276 270 268 265 263 267 272 275 278 276 261 262 271 281 285 293 304 290 280 290 303 311 316 319 311 308 309 307
295 297 299 298 291 287 284 287 287 287 292 289 284 279 278 277 273 269 260 259 263 269 269 267 263 261 272 278 283 290 297 290 271 293 299 308 309 311 307 304 307 307
295 294 295 296 296 295 291 292 290 283 286 287 287 282 280 278 276 269 264 260 258 259 262 264 258 271 272 274 278 285 288 282 269 286 293 300 302 300 300 300 296 305
291 292 292 295 298 301 302 300 296 287 283 279 279 283 280 276 274 270 268 265 262 259 258 261 259 276 277 275 278 279 286 264 268 274 280 287 294 294 292 290 293 298
288 290 292 296 299 305 310 308 300 291 280 272 274 279 282 281 280 279 266 264 266 261 256 250 249 270 279 278 275 280 270 261 270 269 281 299 282 273 274 281 290 293
280 284 289 295 299 309 312 307 301 292 287 278 276 277 286 288 284 279 271 264 266 264 262 252 247 259 277 276 276 276 274 267 265 266 280 296 291 278 266 267 281 307
273 279 284 293 298 305 308 305 304 297 289 281 279 278 277 276 279 280 275 266 266 264 268 262 250 254 273 277 277 276 273 262 261 262 277 290 291 285 278 271 272 287
277 279 281 289 294 298 298 298 294 292 293 290 285 279 274 276 281 283 283 275 266 265 262 263 258 254 267 276 279 280 283 268 259 261 276 288 288 287 284 283 281 280